Total_Precipitation_Accumulation
0.59 0.76 0.86 0.81 0.83 0.89 0.79 0.75 0.74 0.61 0.49 0.54 0.57 0.58 0.52 0.49 0.44 0.44 0.46 0.44 0.47 0.40 0.36 0.29 0.28 0.29 0.37 0.42 0.46 0.52 0.59 0.58 0.53 0.51 0.60 0.68 0.70 0.82 0.93 1.00 1.09 1.09 1.10 1.19
0.59 0.61 0.56 0.59 0.66 0.79 0.81 0.82 0.78 0.69 0.52 0.52 0.56 0.60 0.52 0.47 0.44 0.38 0.34 0.33 0.38 0.35 0.34 0.30 0.29 0.28 0.29 0.33 0.38 0.45 0.49 0.48 0.44 0.41 0.48 0.59 0.67 0.77 0.98 1.18 1.39 1.32 1.22 1.26
0.57 0.51 0.44 0.47 0.56 0.70 0.72 0.68 0.62 0.70 0.63 0.60 0.68 0.75 0.63 0.54 0.49 0.40 0.32 0.32 0.35 0.33 0.28 0.29 0.29 0.32 0.28 0.30 0.35 0.42 0.45 0.47 0.46 0.52 0.70 0.99 1.26 1.39 1.46 1.53 1.76 1.78 1.65 1.60
0.71 0.49 0.41 0.44 0.49 0.56 0.77 0.55 0.48 0.60 0.78 0.76 0.66 0.82 0.59 0.53 0.59 0.46 0.37 0.33 0.33 0.33 0.30 0.28 0.29 0.33 0.27 0.30 0.37 0.43 0.46 0.55 0.57 0.70 1.03 1.46 1.78 1.91 1.88 1.96 2.04 2.13 2.06 1.89
0.59 0.41 0.40 0.44 0.41 0.49 0.74 0.61 0.60 0.66 0.72 0.69 0.48 0.55 0.49 0.49 0.58 0.48 0.43 0.42 0.41 0.36 0.33 0.32 0.33 0.35 0.32 0.35 0.43 0.51 0.60 0.78 0.94 1.06 1.24 1.57 1.73 1.79 1.91 2.06 2.30 2.48 2.53 2.46
0.43 0.34 0.36 0.38 0.37 0.42 0.56 0.68 0.80 0.80 0.79 0.76 0.40 0.39 0.45 0.45 0.43 0.43 0.42 0.45 0.44 0.37 0.32 0.34 0.40 0.44 0.44 0.50 0.58 0.64 0.82 0.98 1.04 1.15 1.27 1.40 1.48 1.60 1.80 1.99 2.24 2.41 2.44 2.45
0.48 0.41 0.33 0.31 0.44 0.49 0.53 0.77 1.10 1.19 1.10 0.77 0.34 0.34 0.41 0.33 0.29 0.33 0.35 0.33 0.33 0.34 0.35 0.37 0.39 0.47 0.51 0.57 0.64 0.75 0.90 1.07 1.11 1.20 1.30 1.31 1.36 1.47 1.62 1.73 1.80 1.84 1.83 1.85
0.46 0.47 0.31 0.26 0.32 0.41 0.44 0.55 0.91 1.11 0.92 0.65 0.37 0.44 0.42 0.27 0.22 0.20 0.24 0.27 0.31 0.39 0.42 0.44 0.44 0.56 0.64 0.71 0.81 0.92 1.02 1.11 1.16 1.25 1.33 1.31 1.39 1.49 1.56 1.53 1.49 1.56 1.58 1.63
0.38 0.37 0.23 0.22 0.23 0.27 0.42 0.43 0.50 0.64 0.53 0.55 0.43 0.38 0.30 0.19 0.18 0.17 0.23 0.33 0.42 0.49 0.52 0.55 0.58 0.66 0.75 0.82 0.90 1.00 1.12 1.21 1.26 1.27 1.34 1.48 1.53 1.52 1.49 1.36 1.31 1.37 1.33 1.30
0.30 0.36 0.29 0.25 0.27 0.29 0.34 0.43 0.54 0.63 0.71 0.66 0.45 0.40 0.36 0.25 0.24 0.27 0.33 0.42 0.56 0.66 0.69 0.72 0.78 0.84 0.89 0.92 1.00 1.09 1.20 1.33 1.31 1.32 1.42 1.58 1.53 1.30 1.14 1.06 1.09 1.13 1.18 1.23
0.22 0.35 0.38 0.32 0.27 0.29 0.35 0.34 0.44 0.54 0.55 0.77 0.88 0.83 0.65 0.60 0.49 0.54 0.58 0.67 0.84 0.91 0.92 0.90 0.95 1.01 0.99 1.01 1.10 1.13 1.20 1.37 1.39 1.30 1.40 1.41 1.20 0.95 0.85 0.86 0.87 0.88 0.88 0.92
0.19 0.32 0.37 0.28 0.19 0.19 0.28 0.28 0.32 0.54 0.56 0.61 0.94 0.98 0.81 0.84 0.81 0.91 1.00 1.16 1.13 1.11 1.13 1.05 0.99 1.00 0.93 0.91 1.01 1.09 1.21 1.28 1.21 1.17 1.17 1.01 0.82 0.71 0.67 0.65 0.63 0.63 0.66 0.65
0.26 0.36 0.46 0.42 0.36 0.25 0.23 0.19 0.21 0.32 0.51 0.61 0.95 0.99 0.75 0.84 0.94 1.11 1.22 1.24 1.06 0.93 0.87 0.82 0.81 0.75 0.71 0.73 0.78 0.84 0.98 1.05 0.85 0.76 0.81 0.78 0.69 0.64 0.61 0.57 0.55 0.52 0.56 0.59
0.29 0.33 0.40 0.46 0.37 0.24 0.21 0.17 0.17 0.27 0.49 0.53 0.66 0.72 0.65 0.78 0.93 1.04 1.08 0.98 0.77 0.65 0.62 0.58 0.51 0.47 0.51 0.53 0.53 0.50 0.55 0.67 0.60 0.54 0.58 0.61 0.59 0.58 0.60 0.60 0.57 0.53 0.52 0.54
0.30 0.31 0.25 0.24 0.18 0.16 0.15 0.15 0.16 0.21 0.28 0.44 0.51 0.50 0.51 0.56 0.59 0.62 0.65 0.63 0.55 0.49 0.42 0.40 0.38 0.37 0.42 0.42 0.42 0.41 0.38 0.41 0.44 0.43 0.44 0.51 0.55 0.56 0.54 0.56 0.53 0.51 0.51 0.50
0.29 0.28 0.19 0.17 0.15 0.14 0.11 0.10 0.13 0.17 0.21 0.31 0.32 0.33 0.30 0.28 0.25 0.24 0.27 0.32 0.30 0.29 0.26 0.29 0.31 0.33 0.38 0.37 0.35 0.35 0.33 0.32 0.32 0.33 0.34 0.41 0.49 0.51 0.53 0.52 0.50 0.47 0.48 0.49
0.31 0.30 0.28 0.19 0.13 0.18 0.15 0.09 0.11 0.16 0.15 0.19 0.24 0.28 0.28 0.22 0.18 0.15 0.14 0.15 0.17 0.19 0.21 0.23 0.26 0.32 0.38 0.37 0.35 0.35 0.34 0.30 0.30 0.31 0.34 0.39 0.42 0.40 0.45 0.48 0.43 0.40 0.44 0.47
0.26 0.31 0.39 0.29 0.26 0.30 0.15 0.07 0.07 0.10 0.10 0.14 0.17 0.18 0.21 0.18 0.18 0.15 0.13 0.13 0.14 0.15 0.17 0.21 0.24 0.28 0.36 0.37 0.37 0.38 0.36 0.34 0.32 0.31 0.33 0.37 0.38 0.38 0.36 0.39 0.37 0.36 0.41 0.46
0.21 0.32 0.48 0.43 0.36 0.20 0.11 0.09 0.08 0.08 0.10 0.12 0.11 0.10 0.11 0.11 0.15 0.14 0.11 0.11 0.10 0.11 0.13 0.16 0.21 0.30 0.36 0.39 0.42 0.43 0.39 0.37 0.36 0.34 0.32 0.32 0.34 0.37 0.36 0.32 0.32 0.34 0.40 0.44
0.26 0.32 0.50 0.51 0.46 0.28 0.13 0.07 0.07 0.10 0.16 0.14 0.12 0.10 0.10 0.12 0.17 0.14 0.11 0.09 0.09 0.10 0.11 0.14 0.18 0.26 0.33 0.39 0.41 0.44 0.45 0.37 0.33 0.33 0.34 0.34 0.33 0.31 0.33 0.32 0.32 0.33 0.39 0.45
0.36 0.41 0.46 0.45 0.44 0.23 0.10 0.08 0.10 0.21 0.22 0.15 0.13 0.12 0.13 0.13 0.13 0.12 0.09 0.07 0.09 0.09 0.11 0.12 0.17 0.25 0.30 0.37 0.40 0.45 0.46 0.35 0.33 0.39 0.42 0.41 0.37 0.36 0.40 0.42 0.40 0.39 0.40 0.43
0.44 0.47 0.44 0.43 0.47 0.30 0.11 0.13 0.20 0.23 0.16 0.12 0.12 0.12 0.12 0.11 0.11 0.09 0.09 0.08 0.10 0.10 0.12 0.13 0.16 0.21 0.26 0.33 0.39 0.43 0.45 0.42 0.41 0.42 0.43 0.43 0.43 0.43 0.46 0.50 0.50 0.50 0.48 0.48
0.42 0.45 0.46 0.38 0.30 0.19 0.14 0.18 0.20 0.18 0.16 0.13 0.12 0.11 0.11 0.10 0.10 0.09 0.10 0.09 0.10 0.11 0.12 0.14 0.17 0.21 0.24 0.31 0.35 0.39 0.43 0.47 0.46 0.45 0.45 0.45 0.46 0.48 0.47 0.49 0.52 0.54 0.52 0.49
0.36 0.35 0.43 0.38 0.23 0.19 0.19 0.19 0.20 0.19 0.15 0.12 0.11 0.11 0.11 0.11 0.11 0.11 0.10 0.09 0.11 0.12 0.13 0.16 0.20 0.22 0.25 0.31 0.36 0.47 0.49 0.47 0.49 0.50 0.50 0.48 0.46 0.46 0.46 0.48 0.48 0.48 0.49 0.48
0.44 0.48 0.48 0.42 0.30 0.27 0.26 0.23 0.22 0.20 0.15 0.11 0.09 0.10 0.11 0.11 0.11 0.13 0.12 0.11 0.11 0.13 0.15 0.18 0.22 0.25 0.26 0.31 0.37 0.46 0.47 0.47 0.50 0.54 0.54 0.51 0.47 0.43 0.44 0.44 0.45 0.47 0.46 0.50
0.43 0.52 0.56 0.51 0.35 0.34 0.30 0.23 0.20 0.20 0.17 0.12 0.10 0.09 0.10 0.11 0.11 0.13 0.13 0.11 0.11 0.12 0.14 0.18 0.20 0.22 0.24 0.28 0.31 0.37 0.42 0.43 0.47 0.51 0.51 0.49 0.51 0.48 0.44 0.43 0.46 0.52 0.54 0.58